Voltar ao catálogo

STARLINK-30336

AtivoComunicaçõesVLEO
NORAD 57703·PAYLOAD·🇺🇸 United States

Lançado Aug 27, 2023 de Cape Canaveral Space Force Station

Loading…

Próximas Passagens (próximas 24 horas)

TLE

AtualizadoSource: CelesTrak SupGP

Época: Sep 14, 2026, 20:46 UTC

1 57703C 23129F   26257.86576389 -.00015929  00000+0 -57714-3 0  2574
2 57703  42.9993 129.5395 0001355 267.7299 128.8627 15.27575375    12

Acompanhe STARLINK-30336 em tempo real com AllMySat

Download on the App Store